This is the latest recevied weather packets stored in our database for station/object N7TUG-8. If no packets are shown the sender has not sent any weather packets the latest 10 day(s).
| Time | Temp. | Humidity | Pressure | Rain* | Wind** | Luminosity | Snow |
|---|---|---|---|---|---|---|---|
| 1778113227 | 14.44° C | 79% | 1020 hPa | 0 mm | 2.68 m/s, 142° | - | - |
| 1778112386 | 15° C | 78% | 1020 hPa | 0 mm | 1.79 m/s, 153° | - | - |
| 1778111503 | 14.44° C | 78% | 1020 hPa | 0 mm | 2.68 m/s, 156° | - | - |
| 1778110782 | 14.44° C | 78% | 1020.1 hPa | 0 mm | 2.24 m/s, 154° | - | - |
| 1778110706 | 14.44° C | 78% | 1020.1 hPa | 0 mm | 2.24 m/s, 154° | - | - |
| 1778109987 | 15° C | 77% | 1020.1 hPa | 0 mm | 1.79 m/s, 164° | - | - |
| 1778109776 | 14.44° C | 77% | 1020.1 hPa | 0 mm | 2.68 m/s, 171° | - | - |
| 1778109006 | 14.44° C | 78% | 1020.2 hPa | 0 mm | 2.24 m/s, 158° | - | - |
| 1778108186 | 14.44° C | 78% | 1020.2 hPa | 0 mm | 2.68 m/s, 160° | - | - |
| 1778107326 | 14.44° C | 78% | 1020.1 hPa | 0 mm | 2.68 m/s, 149° | - | - |
| 1778106802 | 14.44° C | 77% | 1020.1 hPa | 0 mm | 2.24 m/s, 158° | - | - |
| 1778106456 | 14.44° C | 77% | 1020.2 hPa | 0 mm | 2.68 m/s, 157° | - | - |
| 1778106002 | 15° C | 77% | 1020.3 hPa | 0 mm | 2.24 m/s, 179° | - | - |
| 1778105571 | 14.44° C | 77% | 1020.3 hPa | 0 mm | 2.68 m/s, 149° | - | - |
| 1778105162 | 14.44° C | 77% | 1020.3 hPa | 0 mm | 2.68 m/s, 152° | - | - |
| 1778104611 | 14.44° C | 76% | 1020.4 hPa | 0 mm | 3.58 m/s, 161° | - | - |
| 1778104387 | 14.44° C | 76% | 1020.3 hPa | 0 mm | 3.13 m/s, 168° | - | - |
| 1778103661 | 14.44° C | 77% | 1020.2 hPa | 0 mm | 4.02 m/s, 147° | - | - |
| 1778102786 | 14.44° C | 76% | 1020.4 hPa | 0 mm | 3.58 m/s, 147° | - | - |
| 1778102637 | 14.44° C | 76% | 1020.4 hPa | 0 mm | 2.68 m/s, 159° | - | - |
| 1778101907 | 15° C | 75% | 1020.5 hPa | 0 mm | 2.24 m/s, 157° | - | - |
| 1778101856 | 15° C | 75% | 1020.5 hPa | 0 mm | 2.24 m/s, 157° | - | - |
| 1778100921 | 15° C | 76% | 1020.3 hPa | 0 mm | 2.68 m/s, 151° | - | - |
| 1778100367 | 15° C | 75% | 1020.2 hPa | 0 mm | 2.68 m/s, 166° | - | - |
| 1778100136 | 15° C | 76% | 1020.1 hPa | 0 mm | 2.68 m/s, 150° | - | - |
* Rain latest hour (hover to see other rain measurements)
** Current wind speed in m/s (hover to see current wind gust speed)